Weather History for Mount Airy, NC

Change the Weather History Date:

Tuesday, January 7, 2014

  Actual Average (KINT) Record (KINT)
Temperature  
Mean Temperature 14 °F -  
Max Temperature 23 °F 49 °F 68 °F (1998)
Min Temperature 4 °F 32 °F 6 °F (2014)
Degree Days  
Heating Degree Days 52    
Moisture  
Dew Point -8 °F    
Average Humidity 41    
Maximum Humidity 67    
Minimum Humidity 22    
Precipitation  
Precipitation 0.00 in - - ()
Sea Level Pressure  
Sea Level Pressure 30.32 in    
Wind  
Wind Speed 6 mph (NW)    
Max Wind Speed 14 mph    
Max Gust Speed 23 mph    
Visibility 10 miles    
Events      
Averages and records for this station are not official NWS values.
T = Trace of Precipitation, MM = Missing Value Source: NWS Daily Summary

Daily Weather History Graph

Daily Weather History Graph

Search for Another Location

Airport:

Trip Planner

Search our weather history database for the weather conditions in past years. The results will help you decide how hot, cold, wet, or windy it might be!

Date:

Astronomy

Jan. 07, 2014 Rise Set
Actual Time 7:34 AM EST 5:22 PM EST
Civil Twilight 7:06 AM EST 5:51 PM EST
Nautical Twilight 6:34 AM EST 6:23 PM EST
Astronomical Twilight 6:02 AM EST 6:54 PM EST
Moon 11:34 AM EST (1/7) No Moon Set
Length of Visible Light 10h 45m
Length of Day
9h 48m
Waxing Crescent, 45% of the Moon is Illuminated
Jan 7
Waxing Crescent
Jan 7
First Quarter
Jan 15
Full
Jan 24
Last Quarter
Jan 30
New

Hourly Weather History & Observations

Time (EST) Temp. Windchill Dew Point Humidity Pressure Visibility Wind Dir Wind Speed Gust Speed Precip Events Conditions
12:15 AM 7.5 °F -6.9 °F -12.8 °F 39% 30.17 in 10.0 mi NW 10.4 mph 17.3 mph N/A   Clear
12:35 AM 7.2 °F -7.3 °F -13.0 °F 39% 30.18 in 10.0 mi NW 10.4 mph 16.1 mph N/A   Clear
12:55 AM 6.8 °F -6.9 °F -13.0 °F 40% 30.18 in 10.0 mi NW 9.2 mph 19.6 mph N/A   Clear
1:15 AM 6.6 °F -9.5 °F -13.0 °F 40% 30.18 in 10.0 mi WNW 12.7 mph 20.7 mph N/A   Clear
1:35 AM 6.3 °F -10.7 °F -13.4 °F 40% 30.19 in 10.0 mi NW 13.8 mph 23.0 mph N/A   Clear
1:55 AM 6.3 °F -9.2 °F -13.0 °F 41% 30.19 in 10.0 mi WNW 11.5 mph 20.7 mph N/A   Clear
2:15 AM 6.1 °F -7.8 °F -13.2 °F 41% 30.20 in 10.0 mi NW 9.2 mph 17.3 mph N/A   Clear
2:35 AM 6.3 °F -6.5 °F -13.0 °F 41% 30.22 in 10.0 mi WNW 8.1 mph - N/A   Clear
2:55 AM 6.1 °F -7.8 °F -12.8 °F 42% 30.23 in 10.0 mi WNW 9.2 mph - N/A   Clear
3:15 AM 5.9 °F -7.0 °F -12.1 °F 44% 30.24 in 10.0 mi WNW 8.1 mph - N/A   Clear
3:35 AM 5.9 °F -1.1 °F -11.4 °F 45% 30.25 in 10.0 mi WNW 3.5 mph - N/A   Clear
3:55 AM 5.9 °F -3.0 °F -11.0 °F 46% 30.25 in 10.0 mi WNW 4.6 mph - N/A   Clear
4:15 AM 6.1 °F -6.8 °F -11.7 °F 44% 30.25 in 10.0 mi WNW 8.1 mph - N/A   Clear
4:35 AM 5.9 °F -1.1 °F -11.4 °F 45% 30.25 in 10.0 mi West 3.5 mph - N/A   Clear
4:55 AM 5.5 °F -5.0 °F -10.8 °F 47% 30.25 in 10.0 mi WNW 5.8 mph - N/A   Clear
5:15 AM 5.5 °F -5.0 °F -11.0 °F 47% 30.26 in 10.0 mi NW 5.8 mph - N/A   Clear
5:35 AM 5.0 °F - -10.5 °F 49% 30.27 in 10.0 mi Calm Calm - N/A   Clear
5:55 AM 5.4 °F - -10.5 °F 48% 30.26 in 10.0 mi Calm Calm - N/A   Clear
6:15 AM 5.0 °F - -9.2 °F 52% 30.27 in 10.0 mi Calm Calm - N/A   Clear
6:35 AM 4.8 °F - -9.2 °F 52% 30.29 in 10.0 mi Calm Calm - N/A   Clear
6:55 AM 5.0 °F -2.1 °F -8.5 °F 54% 30.29 in 10.0 mi West 3.5 mph - N/A   Clear
7:15 AM 4.8 °F -4.3 °F -8.3 °F 55% 30.28 in 10.0 mi West 4.6 mph - N/A   Clear
7:35 AM 4.5 °F - -7.8 °F 57% 30.29 in 10.0 mi Calm Calm - N/A   Clear
7:55 AM 4.8 °F - -8.0 °F 56% 30.28 in 10.0 mi Calm Calm - N/A   Clear
8:15 AM 5.7 °F -1.3 °F -7.4 °F 55% 30.32 in 10.0 mi WSW 3.5 mph - N/A   Clear
8:35 AM 6.8 °F -2.0 °F -7.6 °F 52% 30.35 in 10.0 mi West 4.6 mph - N/A   Clear
8:55 AM 8.1 °F -3.2 °F -7.8 °F 49% 30.37 in 10.0 mi West 6.9 mph - N/A   Clear
9:15 AM 8.6 °F -2.6 °F -8.5 °F 46% 30.38 in 10.0 mi WSW 6.9 mph - N/A   Clear
9:35 AM 9.5 °F -1.5 °F -10.7 °F 40% 30.39 in 10.0 mi West 6.9 mph - N/A   Clear
9:55 AM 10.4 °F -1.5 °F -10.8 °F 38% 30.39 in 10.0 mi West 8.1 mph - N/A   Clear
10:15 AM 11.5 °F 0.9 °F -11.2 °F 36% 30.40 in 10.0 mi NW 6.9 mph - N/A   Clear
10:35 AM 12.9 °F 3.8 °F -10.3 °F 35% 30.40 in 10.0 mi WNW 5.8 mph - N/A   Clear
10:55 AM 13.5 °F 1.3 °F -11.0 °F 33% 30.39 in 10.0 mi West 9.2 mph - N/A   Clear
11:15 AM 14.5 °F 2.7 °F -11.2 °F 31% 30.37 in 10.0 mi NW 9.2 mph - N/A   Clear
11:35 AM 16.7 °F 6.2 °F -10.5 °F 29% 30.37 in 10.0 mi West 8.1 mph - N/A   Clear
11:55 AM 17.8 °F 8.5 °F -10.1 °F 29% 30.35 in 10.0 mi WNW 6.9 mph - N/A   Clear
12:15 PM 18.1 °F 7.9 °F -11.6 °F 26% 30.32 in 10.0 mi NW 8.1 mph - N/A   Clear
12:35 PM 18.9 °F 7.2 °F -12.1 °F 25% 30.31 in 10.0 mi NW 10.4 mph 20.7 mph N/A   Clear
12:55 PM 19.6 °F 8.1 °F -11.2 °F 25% 30.29 in 10.0 mi West 10.4 mph 17.3 mph N/A   Clear
1:15 PM 19.9 °F 9.3 °F -10.5 °F 26% 30.30 in 10.0 mi NW 9.2 mph - N/A   Clear
1:35 PM 20.8 °F 11.2 °F -11.4 °F 24% 30.29 in 10.0 mi WNW 8.1 mph - N/A   Clear
1:55 PM 22.1 °F 15.9 °F -10.1 °F 24% 30.28 in 10.0 mi NW 4.6 mph - N/A   Clear
2:15 PM 23.0 °F 13.1 °F -10.7 °F 22% 30.29 in 10.0 mi WNW 9.2 mph - N/A   Clear
2:35 PM 22.8 °F 15.5 °F -9.0 °F 24% 30.31 in 10.0 mi NNW 5.8 mph - N/A   Clear
2:55 PM 21.9 °F 15.7 °F -9.6 °F 25% 30.30 in 10.0 mi NNW 4.6 mph - N/A   Clear
3:15 PM 22.8 °F 15.5 °F -8.9 °F 25% 30.30 in 10.0 mi NNW 5.8 mph - N/A   Clear
3:35 PM 23.0 °F 14.7 °F -8.9 °F 24% 30.31 in 10.0 mi NNW 6.9 mph - N/A   Clear
3:55 PM 23.2 °F 17.2 °F -8.5 °F 25% 30.32 in 10.0 mi North 4.6 mph - N/A   Clear
4:15 PM 23.0 °F 18.4 °F -8.5 °F 25% 30.33 in 10.0 mi North 3.5 mph - N/A   Clear
4:35 PM 23.2 °F 17.2 °F -8.1 °F 25% 30.33 in 10.0 mi North 4.6 mph - N/A   Clear
4:55 PM 22.6 °F - -8.5 °F 25% 30.34 in 10.0 mi Calm Calm - N/A   Clear
5:15 PM 21.6 °F 16.8 °F -6.5 °F 29% 30.35 in 10.0 mi North 3.5 mph - N/A   Clear
5:35 PM 20.8 °F 16.0 °F -6.2 °F 30% 30.35 in 10.0 mi North 3.5 mph - N/A   Clear
5:55 PM 20.3 °F 13.8 °F -6.3 °F 31% 30.35 in 10.0 mi North 4.6 mph - N/A   Clear
6:15 PM 19.6 °F 14.5 °F -6.0 °F 32% 30.36 in 10.0 mi North 3.5 mph - N/A   Clear
6:35 PM 19.2 °F 14.1 °F -5.1 °F 34% 30.36 in 10.0 mi NNW 3.5 mph - N/A   Clear
6:55 PM 19.0 °F - -5.1 °F 34% 30.36 in 10.0 mi Calm Calm - N/A   Clear
7:15 PM 18.1 °F - -3.1 °F 39% 30.35 in 10.0 mi Calm Calm - N/A   Clear
7:35 PM 17.8 °F - -3.5 °F 39% 30.37 in 10.0 mi Calm Calm - N/A   Clear
7:55 PM 17.4 °F - -2.4 °F 42% 30.38 in 10.0 mi Calm Calm - N/A   Clear
8:15 PM 16.7 °F - -0.0 °F 48% 30.38 in 10.0 mi Calm Calm - N/A   Clear
8:35 PM 17.2 °F - -0.8 °F 45% 30.37 in 10.0 mi Calm Calm - N/A   Clear
8:55 PM 15.8 °F - -0.4 °F 49% 30.38 in 10.0 mi Calm Calm - N/A   Clear
9:15 PM 16.2 °F - 0.3 °F 50% 30.39 in 10.0 mi Calm Calm - N/A   Clear
9:35 PM 15.1 °F - 3.9 °F 61% 30.39 in 10.0 mi Calm Calm - N/A   Clear
9:55 PM 14.5 °F - 5.2 °F 66% 30.40 in 10.0 mi Calm Calm - N/A   Clear
10:15 PM 14.7 °F - 3.0 °F 60% 30.39 in 10.0 mi Calm Calm - N/A   Clear
10:35 PM 14.9 °F - 3.6 °F 61% 30.40 in 10.0 mi Calm Calm - N/A   Clear
10:55 PM 14.4 °F - 5.2 °F 67% 30.40 in 10.0 mi Calm Calm - N/A   Clear
11:15 PM 14.5 °F - 3.7 °F 62% 30.39 in 10.0 mi Calm Calm - N/A   Clear
11:35 PM 14.4 °F - 4.5 °F 65% 30.39 in 10.0 mi Calm Calm - N/A   Clear
11:55 PM 14.4 °F - 4.6 °F 65% 30.38 in 10.0 mi Calm Calm - N/A   Clear